Regional Weather Roundup
Issued by NWS

Home | Current Version | Previous Version | Graphics & Text | Print | Product List | Glossary On
Versions: 1 2 3 4 5 6 7 8 9 10 11 12 13 14 15 16 17 18 19 20 21 22 23 24 25 26 27 28 29 30 31 32 33 34 35 36 37 38 39 40 41 42 43 44 45 46 47 48 49 50
000
ASUS45 KBOI 302310
RWRID
WEATHER ROUNDUP FOR IDAHO
NATIONAL WEATHER SERVICE BOISE ID
500 PM MDT TUE SEP 30 2014

NOTE: "FAIR" INDICATES FEW OR NO CLOUDS BELOW 12000 FEET
WITH NO SIGNIFICANT WEATHER AND/OR OBSTRUCTIONS TO VISIBILITY

IDZ012-014-010000-
SOUTHWEST IDAHO


CITY           SKY/WX    TMP DP  RH WIND       PRES   REMARKS
BOISE          SUNNY     60  34  37 NW17      29.97S
CALDWELL       SUNNY     64  36  34 N13       29.99F
MOUNTAIN HOME  SUNNY     61  36  39 NW24G32   29.95F
$$

IDZ016-017-010000-
SOUTHCENTRAL IDAHO


CITY           SKY/WX    TMP DP  RH WIND       PRES   REMARKS
BURLEY         MOSUNNY   56  39  53 W20G29    29.92S
JEROME         SUNNY     57  35  43 SW23G35   29.95S
TWIN FALLS     SUNNY     57  38  48 W30       29.95S
$$

IDZ019>023-010000-
SOUTHEAST IDAHO


CITY           SKY/WX    TMP DP  RH WIND       PRES   REMARKS
IDAHO FALLS    PTSUNNY   58  39  49 SW24G30   29.85S
POCATELLO      MOSUNNY   57  40  52 W29G35    29.90S
REXBURG        HVY RAIN  53  46  77 SW12G22   29.84S
$$

IDZ006-010-011-018-031-032-010000-
CENTRAL IDAHO MOUNTAINS


CITY           SKY/WX    TMP DP  RH WIND       PRES   REMARKS
MCCALL         MOSUNNY   51  31  46 NW13      29.97S
HAILEY         MOSUNNY   61  34  36 W12G18    29.86F
STANLEY          N/A     46  34  62 N12       29.96R
SALMON         MOSUNNY   55  36  47 NW5       29.89R
CHALLIS        CLOUDY    51  38  60 N12G20    29.90R
$$

IDZ002-004-006-007-026-010000-
NORTHERN IDAHO


CITY           SKY/WX    TMP DP  RH WIND       PRES   REMARKS
LEWISTON       CLOUDY    64  38  38 W13       29.95S
LOWELL           N/A     56  50  80 SW3       29.98S
COEUR D`ALENE  PTSUNNY  N/A N/A N/A NW18G24   29.91R
MULLAN PASS    CLOUDY    37  37 100 VRB6      29.95S FOG     WCI  32
$$



USA.gov is the U.S. government's official web portal to all federal, state and local government web resources and services.